EHI
6 8 9 11 11 9 7 6 5 5 5 3 1 0 1 2 4 5 6 6 6 6 6 4 2 1 1 3 4 5 6 5 4 2 1 1 1 1 0 1 1 1 0
7 7 9 10 11 10 8 7 6 6 5 3 1 0 1 2 3 4 6 6 6 6 5 4 2 1 0 2 4 5 5 4 3 2 1 0 0 0 0 0 0 0 0
6 6 7 10 10 11 11 10 8 6 4 2 0 0 0 1 3 4 5 5 5 5 4 3 1 1 0 1 3 4 4 3 2 1 0 0 0 0 0 0 0 0 0
3 3 6 10 10 11 12 12 8 5 2 0 0 0 0 1 2 4 5 5 4 3 3 2 1 1 1 1 2 3 3 3 3 2 1 0 0 0 0 0 0 0 0
2 2 6 10 10 10 11 12 9 5 2 0 0 0 0 1 2 4 5 5 3 2 3 2 2 2 2 1 1 3 3 3 3 2 1 0 0 0 0 0 0 0 0
2 3 6 10 10 9 9 10 9 6 2 0 0 0 0 1 3 4 5 4 3 2 3 3 3 3 3 2 1 2 3 3 3 1 0 0 0 0 0 0 0 0 0
1 2 6 9 9 8 8 8 8 6 3 1 0 0 1 2 4 5 5 3 2 2 3 3 3 3 3 2 1 1 2 3 2 1 0 0 0 0 0 0 0 0 0
1 1 3 6 8 7 7 7 7 5 3 1 0 0 1 3 4 4 3 2 2 2 2 1 1 3 3 2 1 0 1 2 2 1 0 0 0 0 0 0 0 0 0
0 0 1 3 6 6 6 6 5 4 3 3 1 0 1 3 4 3 2 2 3 4 3 1 1 2 3 2 1 0 0 1 1 0 0 0 0 0 0 0 0 0 0
1 0 0 1 3 4 4 3 3 3 3 3 2 0 1 2 3 3 3 2 4 4 3 1 1 2 2 1 0 0 0 0 0 0 0 0 0 0 0 0 0 0 0
2 1 0 0 1 2 2 1 1 2 1 1 1 0 0 1 2 3 3 3 4 4 2 1 1 1 1 0 0 0 0 0 0 0 0 0 0 0 1 0 0 0 0
2 1 0 0 1 2 1 0 0 0 0 0 0 0 0 0 1 1 3 3 3 2 1 0 0 0 0 0 0 0 0 0 0 0 0 0 0 0 0 0 0 0 0
2 1 1 1 1 2 2 1 1 0 0 0 0 0 0 0 0 1 2 3 2 1 0 0 0 0 0 0 0 0 0 0 0 0 0 0 0 0 0 0 0 0 0
1 1 2 2 1 2 4 3 2 1 0 0 0 0 0 0 0 1 2 1 1 0 0 0 0 0 0 0 0 0 0 0 0 0 0 0 0 1 1 0 0 0 0
0 1 2 2 1 2 4 4 2 1 0 0 0 0 0 0 0 1 1 1 1 1 1 0 0 0 0 0 0 0 0 0 0 0 0 0 0 1 1 0 0 0 0
0 1 2 2 1 1 4 4 2 1 0 0 0 0 0 0 0 0 0 1 2 2 2 1 0 0 0 0 0 0 0 0 0 0 0 0 0 0 0 0 0 0 0
0 0 1 1 0 1 2 3 2 1 0 0 0 0 0 0 0 0 0 1 2 3 3 2 1 0 0 0 0 0 0 0 0 0 0 0 0 0 0 0 0 0 0
0 0 0 0 0 0 1 2 2 1 0 0 0 0 0 0 0 0 0 0 1 3 3 3 1 1 0 0 0 0 0 0 0 0 0 0 0 0 0 0 0 0 0
0 0 0 0 0 0 0 1 1 0 0 0 0 0 0 0 0 0 0 0 1 2 3 3 3 2 1 0 0 0 0 0 0 0 0 0 0 0 0 0 0 0 0
0 0 0 0 0 0 0 1 0 0 0 0 0 0 0 0 0 0 0 0 0 1 2 3 3 2 1 0 0 0 0 0 0 0 0 0 0 0 0 0 0 0 0
0 0 0 0 0 0 0 0 0 0 0 0 0 0 0 0 0 0 0 0 0 0 1 2 2 1 0 0 0 0 0 0 0 0 0 0 0 0 0 0 0 0 0
0 0 0 0 0 0 0 0 0 0 0 0 0 0 0 0 0 0 0 0 0 0 1 2 2 1 0 0 0 0 0 0 0 0 0 0 0 0 0 0 0 0 0
0 0 0 0 0 0 0 0 0 0 0 0 0 0 0 0 0 0 0 0 0 0 1 2 3 2 0 0 0 0 0 0 0 0 0 0 0 0 0 0 0 0 0
0 0 0 0 0 0 0 0 0 0 0 0 0 0 0 0 0 0 0 0 0 0 0 1 2 2 1 0 0 0 0 0 0 0 0 0 0 0 0 0 0 0 0
0 0 0 0 0 0 0 0 0 0 0 0 0 0 0 0 0 0 0 0 0 0 0 1 2 3 2 1 0 0 0 0 0 0 0 0 0 0 0 0 0 0 0
0 0 0 0 0 0 0 0 0 0 0 0 0 0 0 0 0 0 0 0 0 0 0 1 2 3 2 1 0 0 0 0 0 0 0 0 0 0 0 0 0 0 0
Wind_Speed
4 6 7 6 6 6 6 6 6 7 6 5 5 6 6 6 6 6 7 6 6 6 6 6 7 6 6 7 7 8 8 7 7 7 7 8 8 8 8 8 7 6 9
5 6 7 6 6 6 5 6 6 6 6 5 5 5 6 6 6 6 6 6 6 6 5 5 6 6 6 7 7 7 7 6 5 5 5 6 7 7 8 8 8 6 8
5 6 6 6 6 6 6 6 6 5 6 6 5 5 5 5 5 6 6 6 6 5 5 5 5 6 6 6 6 6 5 4 3 2 3 2 4 7 8 8 8 8 7
6 6 6 6 6 6 6 6 6 5 5 6 5 5 4 5 5 6 6 6 6 5 5 5 5 5 5 5 5 5 4 3 2 2 2 2 3 6 7 7 7 6 6
6 6 6 6 5 5 6 6 6 5 5 5 5 4 4 4 5 5 5 5 6 5 5 5 4 4 5 4 4 3 2 2 2 2 1 2 3 5 6 6 6 6 6
6 5 5 5 5 4 5 6 6 6 5 5 5 4 3 3 3 4 5 5 5 5 5 5 4 4 4 4 3 2 2 3 3 1 1 2 2 5 5 5 4 4 4
5 5 4 5 4 4 4 5 5 5 5 4 4 4 3 3 3 4 4 4 5 4 4 5 4 3 3 3 2 2 2 4 1 1 1 2 3 5 4 4 3 3 3
5 4 3 3 4 3 3 4 4 4 4 4 3 4 3 3 3 3 4 4 4 4 4 4 4 4 3 2 2 2 3 3 1 1 0 2 3 4 4 4 3 3 3
4 4 3 2 2 2 3 3 3 4 4 4 3 3 3 1 2 2 3 3 3 4 4 4 3 4 2 2 2 2 4 3 2 1 1 1 3 3 3 3 3 3 3
3 3 4 3 2 1 1 2 3 4 4 4 4 4 3 2 1 2 2 3 3 3 3 3 3 3 2 2 2 3 4 3 2 1 0 1 3 3 3 2 2 2 2
3 3 3 3 2 2 1 1 2 2 3 3 2 3 3 1 0 1 2 2 2 2 2 2 2 2 2 2 3 4 3 2 1 0 0 2 2 2 2 2 1 1 1
2 2 2 3 2 2 2 1 0 0 1 1 1 1 1 1 1 1 2 1 2 2 2 2 2 2 1 1 2 3 2 2 1 0 0 1 2 2 1 1 1 1 1
1 2 2 2 2 1 1 1 1 0 0 0 1 1 2 1 1 1 1 0 1 1 1 2 2 1 1 0 0 1 1 1 1 0 0 1 2 2 2 1 1 1 1
1 1 2 2 2 1 1 1 1 1 0 0 0 1 1 1 1 1 0 0 0 0 1 1 1 2 2 1 1 1 2 1 1 0 1 1 1 2 2 2 2 1 2
1 1 1 1 2 1 1 1 1 1 1 1 1 1 1 1 1 1 0 0 0 1 1 1 2 2 2 2 1 1 1 2 1 1 0 1 1 2 3 3 3 2 2
1 1 1 0 1 1 0 1 1 1 1 1 1 1 1 1 1 1 1 1 1 1 1 1 2 2 1 1 2 2 2 2 1 1 1 1 1 2 3 4 4 4 3
1 1 1 0 1 0 0 0 1 1 1 1 1 1 1 1 1 1 1 1 1 1 1 1 2 1 2 1 2 2 2 2 2 1 1 1 1 2 3 4 3 3 3
1 1 1 1 1 0 0 0 0 1 1 1 2 1 1 1 1 1 1 1 1 1 1 1 1 1 2 1 1 2 1 1 2 1 1 0 0 1 1 3 2 3 3
1 1 1 1 1 1 0 0 0 0 1 1 1 2 2 2 2 1 1 1 1 1 1 2 1 1 1 2 2 2 1 1 2 1 0 0 0 0 0 1 2 2 3
1 0 1 1 1 1 1 0 1 0 0 0 0 1 2 1 2 2 1 2 1 0 1 1 2 2 1 1 2 2 2 2 1 1 1 0 0 0 1 1 1 1 2
1 1 0 1 0 1 0 0 0 1 1 1 0 1 2 2 1 1 1 2 1 1 1 1 1 2 1 1 1 2 2 2 1 1 0 0 0 0 1 1 0 1 1
1 1 1 1 1 1 1 1 1 1 1 1 1 0 1 2 1 1 1 1 1 1 1 1 1 1 1 1 0 1 1 2 2 1 1 1 1 0 1 1 1 1 0
1 1 1 1 1 1 1 1 0 0 1 1 1 1 1 2 2 1 1 1 1 1 1 1 1 1 1 1 0 0 0 1 3 2 1 0 0 0 1 1 1 0 0
1 1 1 1 1 1 1 1 1 1 2 2 2 1 1 1 2 1 1 1 1 1 1 2 2 1 1 2 1 1 1 1 1 2 2 1 0 1 1 1 0 0 1
1 0 0 1 1 1 1 2 2 2 2 1 1 1 1 1 2 1 1 1 1 1 1 1 1 2 1 1 1 2 2 1 1 1 3 2 1 1 1 1 0 0 1
0 0 0 1 1 1 2 2 2 3 3 2 2 2 2 1 2 2 1 1 1 1 2 2 2 2 2 2 2 1 1 1 1 1 2 3 2 2 1 0 0 0 1
Wind_Direction
85 97 74 62 54 52 53 53 52 49 49 54 59 58 56 56 57 57 54 57 60 59 62 65 67 71 72 71 71 69 68 71 76 80 79 74 72 75 73 67 64 68 69
94 105 85 61 56 49 52 51 51 51 49 51 60 59 59 57 57 59 56 54 56 59 60 66 67 72 77 74 71 71 69 68 75 84 84 81 79 74 76 69 62 72 69
91 101 91 59 55 50 45 46 48 51 52 48 55 58 58 60 58 57 55 54 54 55 59 63 68 71 74 74 72 72 71 64 62 71 85 93 87 81 79 73 70 69 68
83 92 86 60 53 53 51 46 45 49 51 49 51 55 57 61 58 58 57 56 54 52 52 60 65 66 68 73 77 75 66 42 11 34 70 85 87 87 82 75 73 70 68
73 87 89 65 52 55 55 52 44 45 49 48 45 48 59 61 63 61 57 55 56 51 49 54 59 63 64 69 73 70 51 5 345 359 48 73 83 97 91 82 76 71 67
69 75 90 69 53 55 55 54 46 42 42 43 40 43 52 60 58 59 60 59 57 53 49 45 50 58 60 56 59 46 12 336 332 10 41 77 87 98 97 91 82 74 72
58 65 87 69 52 54 58 53 45 39 36 35 39 42 51 56 60 61 58 58 53 48 45 40 39 46 50 38 23 359 340 334 330 355 22 80 96 102 99 96 88 79 72
52 59 73 82 56 45 54 52 44 36 31 30 31 36 42 48 54 60 55 58 53 43 40 36 32 28 36 19 357 341 325 318 335 321 10 86 108 111 102 101 93 82 79
51 52 45 76 87 49 39 42 40 32 28 21 24 27 20 29 53 59 55 52 48 39 32 30 25 15 6 348 326 312 307 309 302 294 349 94 125 132 121 112 102 92 76
48 52 37 21 44 35 51 40 36 32 30 25 23 14 10 12 39 52 50 52 40 31 25 20 17 360 342 308 289 281 288 292 273 288 342 107 125 147 143 130 117 106 88
27 37 39 15 23 16 342 37 50 36 41 31 25 8 354 340 21 72 58 42 20 10 4 2 359 345 339 285 263 263 272 254 242 330 22 120 137 152 155 154 142 115 102
1 5 36 14 359 15 348 14 92 64 77 41 24 14 346 327 336 45 43 26 7 1 353 343 331 319 323 284 276 268 271 277 245 217 30 154 183 199 184 176 164 152 140
334 349 19 25 350 7 345 2 2 7 50 42 15 355 356 349 1 46 60 49 23 2 340 322 312 291 289 299 272 256 280 306 300 245 115 161 208 229 224 218 213 211 229
340 343 11 30 3 343 356 1 6 332 331 52 346 6 10 358 349 340 19 350 304 306 306 294 291 298 309 302 271 258 268 274 305 288 169 159 217 240 251 243 244 254 256
319 331 9 15 352 338 9 336 23 3 343 346 11 14 14 13 321 304 302 282 279 289 301 291 284 293 307 311 306 288 279 283 278 322 183 188 246 247 250 258 254 254 274
256 289 344 7 339 308 22 355 17 19 357 355 17 2 5 16 341 304 310 306 301 295 296 288 285 297 298 310 311 306 293 287 283 259 220 225 247 259 256 254 263 261 275
236 246 293 280 314 259 83 7 24 27 15 360 343 351 8 11 343 316 296 290 299 318 314 310 297 302 297 306 298 293 289 280 277 256 211 200 242 260 269 263 264 271 271
256 231 248 292 316 147 93 65 61 29 19 5 348 341 350 353 332 326 295 280 287 321 315 303 291 283 286 288 294 292 284 286 282 264 234 195 221 249 291 285 275 295 289
276 223 201 196 190 142 79 49 74 55 33 350 353 347 329 335 325 350 324 288 297 322 297 293 304 274 278 298 299 285 272 269 270 291 299 206 280 299 267 271 270 300 314
321 66 144 126 167 120 103 65 65 44 321 280 2 343 321 317 333 345 341 304 307 301 295 290 294 302 281 279 303 303 277 261 238 232 262 291 17 9 333 277 247 279 318
352 357 129 189 199 115 149 219 5 309 292 302 311 1 317 302 311 316 318 315 317 280 267 272 280 299 301 317 332 315 301 265 221 215 233 150 215 246 297 274 213 239 272
282 278 262 240 245 222 201 221 204 240 277 275 283 277 309 296 287 283 294 318 318 305 295 290 296 294 296 335 323 324 327 319 319 283 222 199 230 262 272 270 232 242 259
249 240 255 245 260 243 210 184 106 317 290 287 271 251 277 290 282 268 277 297 299 290 282 285 261 274 271 284 288 159 199 264 314 295 249 221 187 333 261 265 249 272 13
238 233 208 214 250 252 217 190 197 235 254 261 259 251 256 286 290 283 270 277 279 283 273 279 284 273 247 261 278 283 239 230 252 300 308 296 255 298 266 306 283 268 56
219 185 182 227 249 265 237 216 222 238 251 262 263 262 272 269 264 269 261 256 261 256 249 261 289 281 261 250 264 275 283 285 249 243 283 292 303 276 263 254 263 13 39
190 132 218 256 257 253 247 236 227 229 243 253 260 254 259 249 241 237 254 258 259 253 245 239 252 253 262 261 261 263 249 238 242 255 268 272 280 277 276 195 71 5 69